This is the latest recevied weather packets stored in our database for station/object AE5HO. If no packets are shown the sender has not sent any weather packets the latest 10 day(s).
| Time | Temp. | Humidity | Pressure | Rain* | Wind** | Luminosity | Snow |
|---|---|---|---|---|---|---|---|
| 1787877378 | 35.56° C | 42% | 1013.6 hPa | 0 mm | - | 6 W/m² | - |
| 1787877074 | 35.56° C | 42% | 1013.3 hPa | 0 mm | - | 10 W/m² | - |
| 1787876769 | 35.56° C | 42% | 1013.5 hPa | 0 mm | - | 15 W/m² | - |
| 1787876468 | 35.56° C | 41% | 1013.6 hPa | 0 mm | - | 17 W/m² | - |
| 1787876167 | 35.56° C | 41% | 1013.4 hPa | 0 mm | - | 16 W/m² | - |
| 1787875862 | 35.56° C | 41% | 1013.4 hPa | 0 mm | - | 17 W/m² | - |
| 1787875562 | 35.56° C | 41% | 1013.7 hPa | 0 mm | - | 17 W/m² | - |
| 1787875256 | 35.56° C | 40% | 1013.6 hPa | 0 mm | - | 17 W/m² | - |
| 1787874955 | 35.56° C | 39% | 1013.5 hPa | 0 mm | - | 18 W/m² | - |
| 1787874650 | 36.11° C | 38% | 1013.5 hPa | 0 mm | - | 22 W/m² | - |
| 1787874349 | 36.11° C | 39% | 1013.5 hPa | 0 mm | - | 22 W/m² | - |
| 1787874043 | 36.11° C | 39% | 1013.5 hPa | 0 mm | - | 23 W/m² | - |
| 1787873743 | 36.67° C | 38% | 1013.5 hPa | 0 mm | - | 28 W/m² | - |
| 1787873438 | 36.67° C | 39% | 1013.3 hPa | 0 mm | - | 31 W/m² | - |
| 1787873133 | 36.67° C | 38% | 1013.4 hPa | 0 mm | - | 33 W/m² | - |
| 1787872832 | 37.22° C | 38% | 1013.5 hPa | 0 mm | - | 37 W/m² | - |
| 1787872528 | 37.22° C | 37% | 1013.4 hPa | 0 mm | - | 46 W/m² | - |
| 1787872228 | 37.22° C | 37% | 1013.5 hPa | 0 mm | - | 51 W/m² | - |
| 1787871928 | 37.78° C | 36% | 1013.6 hPa | 0 mm | - | 45 W/m² | - |
| 1787871623 | 37.78° C | 36% | 1013.5 hPa | 0 mm | - | 48 W/m² | - |
| 1787871319 | 37.78° C | 38% | 1013.5 hPa | 0 mm | - | 37 W/m² | - |
| 1787871014 | 37.78° C | 38% | 1013.7 hPa | 0 mm | - | 40 W/m² | - |
| 1787870714 | 37.22° C | 41% | 1013.6 hPa | 0 mm | - | 33 W/m² | - |
| 1787870409 | 37.22° C | 41% | 1013.7 hPa | 0 mm | - | 32 W/m² | - |
| 1787870104 | 37.22° C | 40% | 1013.5 hPa | 0 mm | - | 31 W/m² | - |
* Rain latest hour (hover to see other rain measurements)
** Current wind speed in m/s (hover to see current wind gust speed)